EW3857 Weather Reports


Display with metric or nautical units.
time (UTC)temp
F
wind
direction
speed
MPH
gust
MPH
rain 1hr
in
rain 24hr
in
rain mn
in
humidity
%
barometer
mb
20260902043832 76 175 0.0 0.0 0.00 0.00 0.00 95 1020.5
20260902043327 76 176 0.0 0.0 0.00 0.00 0.00 95 1020.4
20260902042827 76 175 0.0 0.0 0.00 0.00 0.00 95 1020.7
20260902042321 76 175 0.0 0.0 0.00 0.00 0.00 94 1020.7
20260902041817 76 176 0.0 0.0 0.00 0.00 0.00 94 1020.7
20260902041316 76 176 0.0 0.0 0.00 0.00 0.00 94 1020.6
20260902040815 76 175 0.0 0.0 0.00 0.00 0.00 94 1020.7
20260902040311 76 177 0.0 0.0 0.00 0.00 0.00 94 1020.9
20260902035810 76 177 0.0 0.0 0.00 0.00 0.00 93 1020.7
20260902035306 76 179 0.0 0.0 0.00 0.00 0.00 93 1020.5
20260902034804 76 176 0.0 0.0 0.00 0.00 0.00 93 1020.8
20260902034300 76 175 0.0 0.0 0.00 0.00 0.00 92 1020.8
20260902033757 76 175 0.0 0.0 0.00 0.00 0.00 92 1020.7
20260902033253 76 174 0.0 0.0 0.00 0.00 0.00 92 1020.6
20260902032751 76 176 0.0 0.0 0.00 0.00 0.00 91 1020.6
20260902032247 76 175 0.0 0.0 0.00 0.00 0.00 91 1020.6
20260902031746 76 175 0.0 0.0 0.00 0.00 0.00 91 1020.8
20260902031242 76 174 0.0 0.0 0.00 0.00 0.00 91 1020.7
20260902030737 76 175 0.0 0.0 0.00 0.00 0.00 90 1020.7
20260902030232 76 174 0.0 0.0 0.00 0.00 0.00 90 1020.7
20260902025731 76 176 0.0 0.0 0.00 0.00 0.00 90 1020.7
20260902025226 76 176 0.0 0.0 0.00 0.00 0.00 90 1020.7
20260902024721 77 175 0.0 0.0 0.00 0.00 0.00 89 1020.4
20260902024216 77 174 0.0 0.0 0.00 0.00 0.00 89 1020.7
20260902023712 77 174 0.0 0.0 0.00 0.00 0.00 89 1020.6
20260902023207 77 175 0.0 0.0 0.00 0.00 0.00 89 1020.7
20260902022706 77 176 0.0 0.0 0.00 0.00 0.00 89 1020.4
20260902022202 77 177 0.0 0.0 0.00 0.00 0.00 88 1020.5
20260902021657 77 176 0.0 0.0 0.00 0.00 0.00 88 1020.4
20260902021152 77 176 0.0 0.0 0.00 0.00 0.00 87 1020.3
20260902020648 77 175 0.0 0.0 0.00 0.00 0.00 87 1020.3
20260902020144 78 176 0.0 0.0 0.00 0.00 0.00 87 1020.4
20260902015639 78 176 0.0 0.0 0.00 0.00 0.00 87 1020.4
20260902015136 78 177 0.0 0.0 0.00 0.00 0.00 86 1020.4
20260902014631 78 178 0.0 0.0 0.00 0.00 0.00 87 1020.1
20260902014127 78 176 0.0 0.0 0.00 0.00 0.00 86 1020.3
20260902013626 78 176 0.0 0.0 0.00 0.00 0.00 86 1020.2
20260902013122 78 176 0.0 0.0 0.00 0.00 0.00 86 1020.0
20260902012617 78 176 0.0 0.0 0.00 0.00 0.00 86 1020.2
20260902012112 79 176 0.0 0.0 0.00 0.00 0.00 86 1019.9
20260902011607 79 175 0.0 0.0 0.00 0.00 0.00 86 1019.9
20260902011106 79 176 0.0 0.0 0.00 0.00 0.00 85 1019.8
20260902010601 79 176 0.0 0.0 0.00 0.00 0.00 85 1019.7
20260902010057 79 175 0.0 0.0 0.00 0.00 0.00 85 1019.9
20260902005554 79 174 0.0 0.0 0.00 0.00 0.00 85 1019.9
20260902005051 79 179 0.0 0.0 0.00 0.00 0.00 86 1019.9
20260902004550 80 178 0.0 0.0 0.00 0.00 0.00 86 1019.8
20260902004045 80 178 0.0 0.0 0.00 0.00 0.00 85 1019.7
20260902003541 81 178 0.0 0.0 0.00 0.00 0.00 82 1019.7
20260902003036 81 179 0.0 0.0 0.00 0.00 0.00 80 1019.7
20260902002532 81 179 0.0 0.0 0.00 0.00 0.00 79 1019.6
20260902002027 82 181 0.0 0.0 0.00 0.00 0.00 78 1020.0
20260902001521 82 181 0.0 0.0 0.00 0.00 0.00 77 1019.7
20260902001016 82 181 0.0 0.0 0.00 0.00 0.00 77 1019.9
20260902000511 82 180 0.0 0.0 0.00 0.00 0.00 77 1019.7
20260902000006 83 186 0.0 0.0 0.00 0.00 0.00 78 1019.8
20260901235501 83 179 0.0 0.0 0.00 0.00 0.00 78 1019.8
20260901234955 84 179 0.0 0.0 0.00 0.00 0.00 77 1020.0
20260901234449 84 179 0.0 0.0 0.00 0.00 0.00 77 1019.9
20260901233944 85 180 0.0 0.0 0.00 0.00 0.00 76 1020.0
20260901233444 85 179 0.0 0.0 0.00 0.00 0.00 76 1020.0
20260901232941 86 182 0.0 0.0 0.00 0.00 0.00 75 1020.0
20260901232436 87 181 0.0 0.0 0.00 0.00 0.00 75 1020.1
20260901231931 87 180 0.0 0.0 0.00 0.00 0.00 73 1020.0
20260901231428 87 180 0.0 0.0 0.00 0.00 0.00 73 1020.1
20260901230925 88 179 0.0 0.0 0.00 0.00 0.00 74 1020.0
20260901230423 88 179 0.0 0.0 0.00 0.00 0.00 73 1020.1
20260901225918 89 178 0.0 0.0 0.00 0.00 0.00 76 1019.8
20260901225413 89 178 0.0 0.0 0.00 0.00 0.00 74 1019.6
20260901224908 89 177 0.0 0.0 0.00 0.00 0.00 72 1019.7
20260901224404 90 177 0.0 0.0 0.00 0.00 0.00 71 1019.6
20260901223900 90 178 0.0 0.0 0.00 0.00 0.00 70 1019.6
20260901223355 91 178 0.0 0.0 0.00 0.00 0.00 63 1019.8
20260901222851 91 177 0.0 0.0 0.00 0.00 0.00 56 1019.6
20260901222347 91 178 0.0 0.0 0.00 0.00 0.00 56 1019.6
20260901221843 91 177 0.0 0.0 0.00 0.00 0.00 53 1019.7
20260901221338 91 177 0.0 0.0 0.00 0.00 0.00 49 1019.5
20260901220838 91 173 0.0 0.0 0.00 0.00 0.00 49 1019.9
20260901220337 92 175 0.0 0.0 0.00 0.00 0.00 50 1019.7
20260901215836 92 176 0.0 0.0 0.00 0.00 0.00 49 1019.7
20260901215335 92 177 0.0 0.0 0.00 0.00 0.00 49 1019.8
20260901214834 92 177 0.0 0.0 0.00 0.00 0.00 49 1019.7
20260901214333 93 177 0.0 0.0 0.00 0.00 0.00 48 1019.7
20260901213827 92 178 0.0 0.0 0.00 0.00 0.00 46 1019.7
20260901213327 92 172 0.0 0.0 0.00 0.00 0.00 44 1019.5
20260901212822 92 167 0.0 0.0 0.00 0.00 0.00 49 1020.0
20260901212318 92 178 0.0 0.0 0.00 0.00 0.00 49 1019.8
20260901211814 93 168 0.0 0.0 0.00 0.00 0.00 49 1020.0
20260901211310 93 175 0.0 0.0 0.00 0.00 0.00 49 1019.9
20260901210805 94 176 0.0 0.0 0.00 0.00 0.00 47 1020.1
20260901210301 95 176 0.0 0.0 0.00 0.00 0.00 48 1020.0
20260901205757 95 178 0.0 0.0 0.00 0.00 0.00 47 1020.3
20260901205256 94 178 0.0 0.0 0.00 0.00 0.00 46 1020.2
20260901204751 94 176 0.0 0.0 0.00 0.00 0.00 47 1020.3
20260901204242 95 176 0.0 0.0 0.00 0.00 0.00 46 1020.0
20260901203736 94 178 0.0 0.0 0.00 0.00 0.00 47 1020.4
20260901203231 93 177 0.0 0.0 0.00 0.00 0.00 54 1020.4
20260901202730 93 176 0.0 0.0 0.00 0.00 0.00 52 1020.4
20260901202226 95 177 0.0 0.0 0.00 0.00 0.00 50 1020.6
20260901201721 95 179 0.0 0.0 0.00 0.00 0.00 54 1020.5
20260901201220 94 178 0.0 0.0 0.00 0.00 0.00 53 1020.5
20260901200720 93 178 0.0 0.0 0.00 0.00 0.00 54 1020.7
20260901200215 93 177 0.0 0.0 0.00 0.00 0.00 55 1020.7
20260901195708 93 174 0.0 0.0 0.00 0.00 0.00 55 1020.8
20260901195202 92 175 0.0 0.0 0.00 0.00 0.00 57 1020.8
20260901194658 93 172 0.0 0.0 0.00 0.00 0.00 60 1020.7
20260901194152 93 177 0.0 0.0 0.00 0.00 0.00 57 1020.9
20260901193648 93 176 0.0 0.0 0.00 0.00 0.00 59 1020.8
20260901193142 92 176 0.0 0.0 0.00 0.00 0.00 58 1021.1
20260901192637 92 174 0.0 0.0 0.00 0.00 0.00 56 1021.2
20260901192132 91 176 0.0 0.0 0.00 0.00 0.00 57 1021.1
20260901191628 91 172 0.0 0.0 0.00 0.00 0.00 57 1021.1
20260901191124 92 171 0.0 0.0 0.00 0.00 0.00 58 1021.2
20260901190620 92 174 0.0 0.0 0.00 0.00 0.00 55 1021.3
20260901190119 92 171 0.0 0.0 0.00 0.00 0.00 56 1021.3
20260901185618 92 177 0.0 0.0 0.00 0.00 0.00 57 1021.4
20260901185116 92 175 0.0 0.0 0.00 0.00 0.00 55 1021.4
20260901184612 91 175 0.0 0.0 0.00 0.00 0.00 56 1021.6
20260901184107 91 176 0.0 0.0 0.00 0.00 0.00 60 1021.6
20260901183602 91 174 0.0 0.0 0.00 0.00 0.00 62 1021.7
20260901183058 91 173 0.0 0.0 0.00 0.00 0.00 62 1021.5
20260901182553 91 174 0.0 0.0 0.00 0.00 0.00 61 1021.8
20260901182047 91 171 0.0 0.0 0.00 0.00 0.00 62 1022.0
20260901181547 90 170 0.0 0.0 0.00 0.00 0.00 66 1021.9
20260901181046 90 175 0.0 0.0 0.00 0.00 0.00 65 1021.8
20260901180545 90 173 0.0 0.0 0.00 0.00 0.00 62 1022.1
20260901180040 90 170 0.0 0.0 0.00 0.00 0.00 62 1022.0
20260901175534 90 176 0.0 0.0 0.00 0.00 0.00 62 1022.1
20260901175029 90 173 0.0 0.0 0.00 0.00 0.00 61 1022.1
20260901174525 91 172 0.0 0.0 0.00 0.00 0.00 61 1021.9
20260901174020 90 172 0.0 0.0 0.00 0.00 0.00 61 1022.0
20260901173514 90 171 0.0 0.0 0.00 0.00 0.00 64 1022.2
20260901173010 90 174 0.0 0.0 0.00 0.00 0.00 61 1022.3
20260901172505 90 173 0.0 0.0 0.00 0.00 0.00 62 1022.0
20260901172003 89 172 0.0 0.0 0.00 0.00 0.00 63 1022.2
20260901171502 90 174 0.0 0.0 0.00 0.00 0.00 63 1022.3
20260901171001 90 174 0.0 0.0 0.00 0.00 0.00 64 1022.4
20260901170456 89 175 0.0 0.0 0.00 0.00 0.00 63 1022.5
20260901165955 90 174 0.0 0.0 0.00 0.00 0.00 65 1022.5
20260901165451 90 173 0.0 0.0 0.00 0.00 0.00 64 1022.5
20260901164947 90 174 0.0 0.0 0.00 0.00 0.00 64 1022.5
20260901164442 89 175 0.0 0.0 0.00 0.00 0.00 64 1022.7
20260901163937 89 175 0.0 0.0 0.00 0.00 0.00 65 1022.8
20260901163432 89 175 0.0 0.0 0.00 0.00 0.00 64 1022.7
20260901162931 89 175 0.0 0.0 0.00 0.00 0.00 64 1022.9
20260901162426 88 176 0.0 0.0 0.00 0.00 0.00 66 1022.7
20260901161920 88 174 0.0 0.0 0.00 0.00 0.00 66 1022.7
20260901161419 88 171 0.0 0.0 0.00 0.00 0.00 66 1023.1
20260901160914 88 174 0.0 0.0 0.00 0.00 0.00 68 1022.8
20260901160411 87 174 0.0 0.0 0.00 0.00 0.00 70 1022.8
20260901155909 87 168 0.0 0.0 0.00 0.00 0.00 73 1023.3
20260901155404 87 174 0.0 0.0 0.00 0.00 0.00 71 1023.1
20260901154901 86 174 0.0 0.0 0.00 0.00 0.00 73 1023.2
20260901154400 86 168 0.0 0.0 0.00 0.00 0.00 74 1023.2
20260901153854 85 174 0.0 0.0 0.00 0.00 0.00 75 1023.0
20260901153354 84 175 0.0 0.0 0.00 0.00 0.00 77 1023.1
20260901152853 84 174 0.0 0.0 0.00 0.00 0.00 79 1023.5
20260901152348 83 169 0.0 0.0 0.00 0.00 0.00 80 1023.0
20260901151843 83 170 0.0 0.0 0.00 0.00 0.00 82 1023.0
20260901151337 82 165 0.0 0.0 0.00 0.00 0.00 83 1023.0
20260901150838 82 172 0.0 0.0 0.00 0.00 0.00 83 1023.1
20260901150335 82 167 0.0 0.0 0.00 0.00 0.00 83 1023.3
20260901145833 82 164 0.0 0.0 0.00 0.00 0.00 84 1023.1
20260901145332 81 158 0.0 0.0 0.00 0.00 0.00 84 1023.3
20260901144827 81 163 0.0 0.0 0.00 0.00 0.00 87 1023.1
20260901144323 81 164 0.0 0.0 0.00 0.00 0.00 86 1023.4
20260901143819 80 169 0.0 0.0 0.00 0.00 0.00 89 1023.1
20260901143315 80 172 0.0 0.0 0.00 0.00 0.00 88 1023.1
20260901142811 80 159 0.0 0.0 0.00 0.00 0.00 89 1023.1
20260901142310 80 161 0.0 0.0 0.00 0.00 0.00 90 1023.1
20260901141806 80 186 0.0 0.0 0.00 0.00 0.00 90 1023.2
20260901141301 80 163 0.0 0.0 0.00 0.00 0.00 90 1023.2
20260901140759 80 169 0.0 0.0 0.00 0.00 0.00 92 1023.1
20260901140258 80 175 0.0 0.0 0.00 0.00 0.00 92 1023.1
20260901135753 80 174 0.0 0.0 0.00 0.00 0.00 92 1023.2
20260901135247 79 176 0.0 0.0 0.00 0.00 0.00 93 1023.0
20260901134743 79 170 0.0 0.0 0.00 0.00 0.00 93 1023.1
20260901134243 79 169 0.0 0.0 0.00 0.00 0.00 93 1023.0
20260901133742 79 177 0.0 0.0 0.00 0.00 0.00 93 1023.0
20260901133236 79 170 0.0 0.0 0.00 0.00 0.00 93 1023.2
20260901132734 79 163 0.0 0.0 0.00 0.00 0.00 93 1023.1
20260901132230 79 169 0.0 0.0 0.00 0.00 0.00 94 1023.1
20260901131724 79 176 0.0 0.0 0.00 0.00 0.00 94 1023.1
20260901131224 78 172 0.0 0.0 0.00 0.00 0.00 94 1023.0
20260901130719 78 173 0.0 0.0 0.00 0.00 0.00 94 1023.1
20260901130218 78 169 0.0 0.0 0.00 0.00 0.00 94 1023.2
20260901125711 78 168 0.0 0.0 0.00 0.00 0.00 94 1022.8
20260901125206 78 163 0.0 0.0 0.00 0.00 0.00 95 1023.1
20260901124701 78 170 0.0 0.0 0.00 0.00 0.00 95 1022.8
20260901124200 78 177 0.0 0.0 0.00 0.00 0.00 95 1022.7
20260901123655 78 174 0.0 0.0 0.00 0.00 0.00 96 1022.9
20260901123150 77 176 0.0 0.0 0.00 0.00 0.00 96 1022.8
20260901122648 77 180 0.0 0.0 0.00 0.00 0.00 97 1023.1
20260901122143 77 176 0.0 0.0 0.00 0.00 0.00 98 1022.9
20260901121637 76 178 0.0 0.0 0.00 0.00 0.00 98 1022.7
20260901121132 76 179 0.0 0.0 0.00 0.00 0.00 99 1022.6
20260901120626 76 179 0.0 0.0 0.00 0.00 0.00 99 1022.6
20260901120121 76 183 0.0 0.0 0.00 0.00 0.00 99 1022.6
20260901115617 76 180 0.0 0.0 0.00 0.00 0.00 99 1022.4
20260901115114 75 175 0.0 0.0 0.00 0.00 0.00 99 1022.5
20260901114610 75 183 0.0 0.0 0.00 0.00 0.00 99 1022.5
20260901114108 75 179 0.0 0.0 0.00 0.00 0.00 99 1022.4
20260901113607 74 183 0.0 0.0 0.00 0.00 0.00 99 1022.3
20260901113057 74 180 0.0 0.0 0.00 0.00 0.00 99 1022.2
20260901112556 74 181 0.0 0.0 0.00 0.00 0.00 99 1022.1
20260901112051 74 180 0.0 0.0 0.00 0.00 0.00 99 1022.2
20260901111550 74 180 0.0 0.0 0.00 0.00 0.00 99 1021.9
20260901111049 74 181 0.0 0.0 0.00 0.00 0.00 99 1022.0
20260901110545 75 181 0.0 0.0 0.00 0.00 0.00 99 1022.0
20260901110041 75 180 0.0 0.0 0.00 0.00 0.00 99 1022.0
20260901105537 74 180 0.0 0.0 0.00 0.00 0.00 99 1021.8
20260901105036 74 180 0.0 0.0 0.00 0.00 0.00 99 1022.0
20260901104532 74 182 0.0 0.0 0.00 0.00 0.00 99 1021.8
20260901104027 74 183 0.0 0.0 0.00 0.00 0.00 99 1021.6
20260901103522 74 181 0.0 0.0 0.00 0.00 0.00 99 1021.7
20260901103018 74 184 0.0 0.0 0.00 0.00 0.00 99 1021.8
20260901102517 74 181 0.0 0.0 0.00 0.00 0.00 99 1021.9
20260901102012 75 181 0.0 0.0 0.00 0.00 0.00 99 1021.5
20260901101508 75 182 0.0 0.0 0.00 0.00 0.00 99 1021.7
20260901101007 75 181 0.0 0.0 0.00 0.00 0.00 99 1021.5
20260901100502 75 183 0.0 0.0 0.00 0.00 0.00 99 1021.6
20260901100000 75 183 0.0 0.0 0.00 0.00 0.00 99 1021.5
20260901095500 75 180 0.0 0.0 0.00 0.00 0.00 99 1021.7
20260901094957 75 180 0.0 0.0 0.00 0.00 0.00 99 1021.4
20260901094453 75 180 0.0 0.0 0.00 0.00 0.00 99 1021.6
20260901093952 75 180 0.0 0.0 0.00 0.00 0.00 99 1021.4
20260901093447 75 182 0.0 0.0 0.00 0.00 0.00 99 1021.4
20260901092941 75 183 0.0 0.0 0.00 0.00 0.00 99 1021.2
20260901092437 75 182 0.0 0.0 0.00 0.00 0.00 99 1021.4
20260901091934 75 182 0.0 0.0 0.00 0.00 0.00 99 1021.5
20260901091433 75 183 0.0 0.0 0.00 0.00 0.00 99 1021.4
20260901090929 75 182 0.0 0.0 0.00 0.00 0.00 99 1021.2
20260901090428 75 182 0.0 0.0 0.00 0.00 0.00 99 1021.1
20260901085924 75 181 0.0 0.0 0.00 0.00 0.00 99 1021.1
20260901085420 75 183 0.0 0.0 0.00 0.00 0.00 99 1021.2
20260901084916 75 180 0.0 0.0 0.00 0.00 0.00 99 1021.1
20260901084413 76 181 0.0 0.0 0.00 0.00 0.00 99 1021.1
20260901083908 76 181 0.0 0.0 0.00 0.00 0.00 99 1021.2
20260901083408 76 182 0.0 0.0 0.00 0.00 0.00 99 1021.3
20260901082905 76 181 0.0 0.0 0.00 0.00 0.00 99 1021.1
20260901082401 76 181 0.0 0.0 0.00 0.00 0.00 99 1021.5
20260901081855 76 180 0.0 0.0 0.00 0.00 0.00 99 1021.1
20260901081351 76 180 0.0 0.0 0.00 0.00 0.00 99 1021.3
20260901080851 76 180 0.0 0.0 0.00 0.00 0.00 99 1021.2
20260901080345 76 182 0.0 0.0 0.00 0.00 0.00 99 1021.2
20260901075840 75 181 0.0 0.0 0.00 0.00 0.00 99 1021.1
20260901075335 75 180 0.0 0.0 0.00 0.00 0.00 99 1021.2
20260901074830 75 181 0.0 0.0 0.00 0.00 0.00 99 1021.0
20260901074324 75 183 0.0 0.0 0.00 0.00 0.00 99 1021.1
20260901073820 75 182 0.0 0.0 0.00 0.00 0.00 99 1021.0
20260901073315 75 182 0.0 0.0 0.00 0.00 0.00 99 1021.0
20260901072812 75 181 0.0 0.0 0.00 0.00 0.00 99 1021.2
20260901072311 75 181 0.0 0.0 0.00 0.00 0.00 99 1021.1
20260901071807 75 181 0.0 0.0 0.00 0.00 0.00 99 1021.2
20260901071305 75 182 0.0 0.0 0.00 0.00 0.00 99 1021.0
20260901070804 75 182 0.0 0.0 0.00 0.00 0.00 99 1020.8
20260901070259 75 181 0.0 0.0 0.00 0.00 0.00 99 1021.0
20260901065759 75 181 0.0 0.0 0.00 0.00 0.00 99 1020.9
20260901065254 75 181 0.0 0.0 0.00 0.00 0.00 99 1020.9
20260901064750 75 181 0.0 0.0 0.00 0.00 0.00 99 1021.1
20260901064246 75 181 0.0 0.0 0.00 0.00 0.00 99 1021.1
20260901063743 75 181 0.0 0.0 0.00 0.00 0.00 99 1021.0
20260901063239 75 181 0.0 0.0 0.00 0.00 0.00 99 1021.0
20260901062735 75 181 0.0 0.0 0.00 0.00 0.00 99 1021.1
20260901062230 75 181 0.0 0.0 0.00 0.00 0.00 99 1021.3
20260901061726 75 181 0.0 0.0 0.00 0.00 0.00 99 1021.0
20260901061225 75 182 0.0 0.0 0.00 0.00 0.00 99 1021.2
20260901060721 75 180 0.0 0.0 0.00 0.00 0.00 99 1021.2
20260901060216 75 180 0.0 0.0 0.00 0.00 0.00 99 1021.0
20260901055712 75 181 0.0 0.0 0.00 0.00 0.00 98 1021.2
20260901055208 75 180 0.0 0.0 0.00 0.00 0.00 98 1021.3
20260901054705 75 180 0.0 0.0 0.00 0.00 0.00 98 1021.3
20260901054201 75 180 0.0 0.0 0.00 0.00 0.00 98 1021.3
20260901053657 75 180 0.0 0.0 0.00 0.00 0.00 98 1021.3
20260901053152 75 180 0.0 0.0 0.00 0.00 0.00 98 1021.3
20260901052648 75 180 0.0 0.0 0.00 0.00 0.00 98 1021.2
20260901052143 75 180 0.0 0.0 0.00 0.00 0.00 98 1021.3
20260901051642 75 180 0.0 0.0 0.00 0.00 0.00 98 1021.3
20260901051141 76 180 0.0 0.0 0.00 0.00 0.00 98 1021.1
20260901050637 75 180 0.0 0.0 0.00 0.00 0.00 98 1021.3
20260901050133 75 181 0.0 0.0 0.00 0.00 0.00 98 1021.1
20260901045632 75 180 0.0 0.0 0.00 0.00 0.00 97 1021.1
20260901045127 75 180 0.0 0.0 0.00 0.00 0.00 97 1021.4
20260901044623 75 180 0.0 0.0 0.00 0.00 0.00 97 1021.3